AGROMETEOROLOŠKI PORTAL

vinorodna pokrajina

Temelj dobrega kmetovanja

Pregled podatkov za lokacijo SOTINSKI BREG ARSO, meteorološka postaja 135

Pregled senzorjev na lokaciji

ID Ime Zadnja
vrednost
Datum in čas
meritve
(lokalni čas)
Tip
senzorja
2579 Sončno sevanje (W/m2) 0 W/m2 6.10.2022 06:00 ARSO
2585 Padavine (mm) 0 mm 6.10.2022 06:00 ARSO
2593 Relativna zračna vlaga (2 m) (% RH) 94 % RH 6.10.2022 06:00 ARSO
2592 Temperatura (2 m) (°C) 10,8 °C 6.10.2022 06:00 ARSO
2597 Smer vetra (2 m) (°) 340 ° 6.10.2022 06:00 ARSO
2598 Hitrost vetra (2 m) (km/h) 9 km/h 6.10.2022 06:00 ARSO

Pregled podatkov zadnjih 24 ur

Zap.
št.
Datum in čas
(lokalni čas)
SOTINSKI BREG ARSO
Sončno
sevanje
Padavine Relativna
zračna
vlaga
(2
m)
Temperatura
(2
m)
Smer
vetra
(2
m)
Hitrost
vetra
(2
m)
1 6.10.2022 06:00 0 0 94 10,8 340 9
2 6.10.2022 05:30 0 0 92 10,8 327 3
3 6.10.2022 05:00 0 0 93 10,5 359 4
4 6.10.2022 04:30 0 0 89 10,7 203 3
5 6.10.2022 04:00 0 0 90 11 163 5
6 6.10.2022 03:30 0 0 88 11,2 238 3
7 6.10.2022 03:00 0 0 85 11,5 203 6
8 6.10.2022 02:30 0 0 85 11,7 178 8
9 6.10.2022 02:00 0 0 85 11,8 177 7
10 6.10.2022 01:30 0 0 84 11,8 170 10
11 6.10.2022 01:00 0 0 84 12 161 10
12 6.10.2022 00:30 0 0 83 12,2 154 12
13 6.10.2022 00:00 0 0 82 12,5 149 13
14 5.10.2022 23:30 0 0 82 12,8 149 14
15 5.10.2022 23:00 0 0 81 13 149 14
16 5.10.2022 22:30 0 0 80 13,3 153 15
17 5.10.2022 22:00 0 0 80 13,5 157 17
18 5.10.2022 21:30 0 0 80 13,7 160 17
19 5.10.2022 21:00
20 5.10.2022 20:30 0 0 78 14,2 160 17
21 5.10.2022 20:00
22 5.10.2022 19:30 0 0 75 15 154 16
23 5.10.2022 19:00 1 0 73 15,6 158 15
24 5.10.2022 18:30 13 0 73 15,9 163 16
25 5.10.2022 18:00 46 0 71 16,3 162 14
26 5.10.2022 17:30 80 0 70 16,6 162 15
27 5.10.2022 17:00 131 0 68 17,1 158 15
28 5.10.2022 16:30 188 0 67 17,4 158 14
29 5.10.2022 16:00 270 0 65 17,6 167 18
30 5.10.2022 15:30 366 0 64 17,7 167 18
31 5.10.2022 15:00 293 0 64 17,5 168 20
32 5.10.2022 14:30 458 0 64 17,9 168 18
33 5.10.2022 14:00 587 0 65 17,8 169 19
34 5.10.2022 13:30 528 0 68 16,8 171 17
35 5.10.2022 13:00
36 5.10.2022 12:30
37 5.10.2022 12:00 617 0 74 14,4 170 16
38 5.10.2022 11:30 580 0 76 13,5 168 14
39 5.10.2022 11:00 529 0 80 12,3 168 11
40 5.10.2022 10:30
41 5.10.2022 10:00 403 0 82 10,9 170 8
42 5.10.2022 09:30 329 0 84 10,2 155 6
43 5.10.2022 09:00
44 5.10.2022 08:30 155 0 87 9 197 5
45 5.10.2022 08:00 72 0 88 8,4 214 5